Location: Baia de Cri?
(46.1667°N, 22.7167°E)
Time: 19:35:13
(UTC+00:00)

Tiangong - Pass Details

Date: 16 March 2026
Orbit: 375 x 384 km, 41.5° (Epoch: 21 April)

Event Time Altitude Azimuth Distance (km) Brightness Sun altitude
Exits shadow 03:04:33 27° 185° (S) 773 -0.8 -17.2°
Maximum altitude 03:04:59 28° 168° (SSE) 750 -0.8 -17.2°
Drops below altitude 10° 03:07:47 10° 107° (ESE) 1,411 1.6 -16.7°
Sets 03:10:02 0° 96° (E) 2,270 3.1 -16.3°
